[[{"header":{"parameterUnit":"m.s-1","parameterCategory":2,"la1":30.2991,"la2":30.254,"lo1":-89.0895,"lo2":-89.0444,"dy":0.0017,"dx":0.0017,"nx":28,"ny":28,"refTime":"2025-01-02T03:00:00:Z","depth":"0","parameterNumber":2,"parameterNumberName":"U-component_of_CURRENTS"},"data":[0,0,0,0,0,0,0,0,0,0,0,0,0,0,0,0,0,0,0,0,0,0,0,0,0,0,0,0,0,0,0,0,0,0,0,0,0,0,0,0,0,0,0,0,0,0,0,0,0,0,0,0,0,0,0,0,0,0,0.2702,0.2702,0,0.2697,0.2697,0.2696,0.2712,0.2712,0.2713,0.2714,0.2702,0.2701,0.27,0,0,0,0,0,0,0,0,0,0,0,0,0,0.2729,0.2728,0.2702,0.2702,0.2702,0.2697,0.2697,0.2696,0.2711,0.2713,0.2714,0.2715,0.2702,0.2701,0.27,0,0,0,0,0,0,0,0,0,0,0,0,0,0.2716,0.2728,0.2702,0.2713,0.2714,0.2697,0.2697,0.2696,0.2711,0.2713,0.2714,0.2715,0.2703,0.2701,0.27,0.2663,0,0,0.2694,0.2694,0,0,0,0,0,0,0,0,0.2717,0.2714,0.2711,0.2712,0.2713,0.271,0.2702,0.2686,0.2711,0.2708,0.2714,0.2716,0.2706,0.2704,0.2694,0.2663,0.2662,0.2694,0.2693,0.2692,0.2692,0,0,0,0,0,0,0,0.2717,0.2715,0.2695,0.2711,0.2713,0.272,0.2719,0.2699,0.2696,0.2708,0.271,0.2716,0.2706,0.2696,0.2694,0.2662,0.2694,0.2693,0.2692,0.2691,0.2648,0.2648,0,0,0,0,0,0,0.2725,0.2715,0.2696,0.2696,0.2723,0.2719,0.2717,0.2706,0.2696,0.2698,0.2715,0.2717,0.2698,0.2696,0.2694,0.2694,0.2692,0.2691,0.269,0.2648,0.2648,0.2648,0,0,0,0,0,0,0.2725,0.2722,0.2696,0.271,0.2708,0.2717,0.2704,0.2706,0.2702,0.2703,0.2703,0.2712,0.2699,0.2696,0.2687,0.2693,0.269,0.2689,0.2648,0.2648,0.2648,0.2667,0,0,0,0,0,0,0.2725,0.2722,0.2715,0.271,0.2708,0.2689,0.2704,0.2705,0.2706,0.2708,0.27,0.27,0.27,0.2689,0.2685,0.269,0.2687,0.2649,0.2648,0.2648,0.2667,0.2668,0.2669,0,0,0,0,0,0.2726,0.271,0.2714,0.2712,0.2697,0.2689,0.2688,0.2697,0.2704,0.2698,0.27,0.2701,0.2685,0.2687,0.2682,0.2688,0.2649,0.2648,0.2648,0.2667,0.2668,0.2669,0,0,0,0,0,0,0.2712,0.2711,0.2715,0.2697,0.2698,0.2694,0.2692,0.2694,0.2688,0.2693,0.2692,0.2691,0.2689,0.2678,0.2681,0.2674,0.2669,0.2668,0.2685,0.2686,0.2687,0.272,0.2686,0,0,0,0,0,0.2707,0.2696,0.2699,0.2683,0.2686,0.2687,0.2686,0.269,0.2687,0.2686,0.2682,0.268,0.268,0.2676,0.2671,0.2656,0.2678,0.2657,0.2658,0.2659,0.2683,0.273,0.2738,0.2647,0.2647,0.2647,0,0,0.2697,0.2696,0.2689,0.2681,0.2682,0.2685,0.2688,0.2685,0.269,0.2684,0.2683,0.2681,0.2677,0.2674,0.2672,0.2667,0.269,0.2659,0.266,0.2684,0.273,0.274,0.2748,0.2647,0.2647,0.2647,0,0,0.2676,0.2671,0.2662,0.2666,0.2673,0.2677,0.2678,0.2677,0.268,0.2671,0.2682,0.2689,0.2665,0.2682,0.2683,0.2682,0.2696,0.267,0.2699,0.2743,0.2752,0.276,0.2779,0.2788,0.2668,0.2668,0.2668,0,0.2667,0.2655,0.2657,0.2659,0.2669,0.2677,0.268,0.268,0.2676,0.2689,0.2674,0.2688,0.2677,0.2707,0.2708,0.2687,0.2708,0.2696,0.2748,0.2756,0.2764,0.2782,0.2792,0.2669,0.2668,0.2668,0.2668,0,0.2647,0.2645,0.2642,0.2651,0.2659,0.266,0.2676,0.2682,0.2685,0.2695,0.2717,0.2709,0.2729,0.2717,0.2709,0.276,0.2753,0.2747,0.2751,0.2775,0.279,0.2801,0.267,0.2669,0.2669,0.2669,0,0,0.2601,0.2625,0.2623,0.2632,0.2659,0.2658,0.2684,0.2709,0.2736,0.2732,0.277,0.2768,0.2782,0.2787,0.2783,0.2814,0.2868,0.2805,0.2807,0.2835,0.2956,0.2866,0.2868,0.2877,0.2879,0.2881,0.2937,0,0.2585,0.2589,0.2611,0.2619,0.2624,0.2662,0.2685,0.2714,0.274,0.2776,0.2797,0.2822,0.2803,0.2815,0.2848,0.2872,0.2901,0.2853,0.292,0.2922,0.2849,0.288,0.2731,0.2762,0.2947,0.2949,0.295,0,0.2552,0.2564,0.2572,0.2611,0.2619,0.2632,0.269,0.2713,0.2784,0.281,0.2863,0.2883,0.2938,0.2908,0.2985,0.2958,0.2965,0.2974,0.2976,0.2901,0.2852,0.2771,0.2774,0.2687,0.2967,0.2966,0.2964,0,0.2502,0.2531,0.2538,0.255,0.2598,0.2618,0.2651,0.2721,0.276,0.2844,0.2881,0.2954,0.2983,0.303,0.3047,0.3027,0.3124,0.3095,0.3021,0.3013,0.2906,0.2885,0.2845,0.3154,0.3154,0.3154,0.3154,0,0.2466,0.2466,0.2514,0.2514,0.2534,0.2585,0.2627,0.2679,0.2771,0.2814,0.2895,0.2939,0.3017,0.3072,0.3087,0.309,0.3159,0.3043,0.3032,0.2902,0.2881,0.2814,0.2794,0.3156,0.3156,0.3155,0.3155,0,0.2396,0.2429,0.2436,0.2488,0.2505,0.2517,0.2605,0.264,0.2736,0.2802,0.2831,0.295,0.3008,0.3071,0.3143,0.3118,0.3041,0.3121,0.2949,0.2915,0.2727,0.2714,0.2614,0.2528,0.3044,0.3042,0.3041,0,0.2355,0.2353,0.24,0.2409,0.243,0.2468,0.2497,0.2604,0.2652,0.2787,0.2809,0.2907,0.2939,0.3027,0.3018,0.3036,0.2967,0.2898,0.2825,0.2708,0.2688,0.2604,0.2534,0.2686,0.2682,0.2678,0.2675,0,0.2283,0.2304,0.2318,0.2336,0.2358,0.2386,0.2439,0.2481,0.2595,0.2645,0.2721,0.2768,0.2843,0.2799,0.2827,0.282,0.2732,0.2823,0.2761,0.2457,0.2309,0.2222,0.2649,0.2644,0.2647,0.265,0.2651,0.2653,0.2228,0.222,0.2243,0.2251,0.2272,0.2283,0.2275,0.2339,0.2382,0.2425,0.2552,0.2554,0.2586,0.2597,0.2586,0.2458,0.2492,0.2361,0.2372,0.2311,0.2167,0.251,0.2453,0.2454,0.2456,0.2458,0.2459,0,0.2146,0.2148,0.2156,0.2154,0.2134,0.2179,0.2208,0.2179,0.2162,0.2238,0.2263,0.2249,0.2196,0.2226,0.2148,0.2039,0.1952,0.1973,0.1835,0.1802,0.2157,0.2078,0.1863,0.1863,0.1864,0.1864,0.1864,0.1864,0.2105,0.2073,0.2072,0.2006,0.2003,0.1931,0.1919,0.1893,0.1917,0.188,0.1861,0.1901,0.1982,0.1931,0.1805,0.1747,0.1613,0.1505,0.154,0.1804,0.1841,0.1876,0.1796,0.1525,0.1525,0.1073,0.107,0.1067]},{"header":{"parameterUnit":"m.s-1","parameterCategory":2,"la1":30.2991,"la2":30.254,"lo1":-89.0895,"lo2":-89.0444,"dy":0.0017,"dx":0.0017,"nx":28,"ny":28,"refTime":"2025-01-02T03:00:00:Z","depth":"0","parameterNumber":3,"parameterNumberName":"V-component_of_CURRENTS"},"data":[0,0,0,0,0,0,0,0,0,0,0,0,0,0,0,0,0,0,0,0,0,0,0,0,0,0,0,0,0,0,0,0,0,0,0,0,0,0,0,0,0,0,0,0,0,0,0,0,0,0,0,0,0,0,0,0,0,0,-0.0111,-0.0112,0,-0.0184,-0.0185,-0.0186,-0.0257,-0.0258,-0.0259,-0.026,-0.0346,-0.0348,-0.035,0,0,0,0,0,0,0,0,0,0,0,0,0,-0.0073,-0.0073,-0.0111,-0.0112,-0.0113,-0.0184,-0.0185,-0.0186,-0.0257,-0.0258,-0.0259,-0.026,-0.0346,-0.0348,-0.035,0,0,0,0,0,0,0,0,0,0,0,0,0,-0.0113,-0.0073,-0.0111,-0.0155,-0.016,-0.0184,-0.0185,-0.0186,-0.0257,-0.0258,-0.0259,-0.026,-0.0345,-0.0348,-0.035,-0.0341,0,0,-0.0357,-0.0358,0,0,0,0,0,0,0,0,-0.0111,-0.0115,-0.0148,-0.0152,-0.0157,-0.0211,-0.0203,-0.0238,-0.0257,-0.0222,-0.026,-0.0261,-0.0301,-0.0307,-0.032,-0.0345,-0.0349,-0.0357,-0.0359,-0.036,-0.0361,0,0,0,0,0,0,0,-0.0108,-0.0112,-0.0142,-0.0149,-0.0154,-0.0185,-0.0192,-0.0211,-0.0255,-0.0225,-0.023,-0.0235,-0.0304,-0.0317,-0.0322,-0.035,-0.0357,-0.0359,-0.0361,-0.0362,-0.0381,-0.038,0,0,0,0,0,0,-0.0092,-0.0109,-0.0139,-0.0144,-0.0135,-0.0185,-0.0192,-0.0194,-0.0255,-0.0265,-0.0234,-0.0238,-0.0313,-0.032,-0.0326,-0.032,-0.036,-0.0362,-0.0363,-0.0381,-0.038,-0.0379,0,0,0,0,0,0,-0.0091,-0.0094,-0.0136,-0.0127,-0.0135,-0.0184,-0.0185,-0.0195,-0.0209,-0.0261,-0.0272,-0.0238,-0.0314,-0.0322,-0.0343,-0.0324,-0.0363,-0.0365,-0.0383,-0.0381,-0.038,-0.0307,0,0,0,0,0,0,-0.009,-0.0093,-0.009,-0.0126,-0.0134,-0.0144,-0.0184,-0.0195,-0.0209,-0.0216,-0.0268,-0.0277,-0.0316,-0.0339,-0.0345,-0.0328,-0.0367,-0.0384,-0.0382,-0.038,-0.0311,-0.0304,-0.0297,0,0,0,0,0,-0.0088,-0.0078,-0.009,-0.0093,-0.0128,-0.0143,-0.015,-0.019,-0.0208,-0.0208,-0.0246,-0.0276,-0.0332,-0.034,-0.0347,-0.0331,-0.0385,-0.0382,-0.038,-0.0314,-0.0305,-0.0298,0,0,0,0,0,0,-0.0059,-0.0085,-0.0099,-0.0097,-0.0114,-0.0154,-0.0159,-0.018,-0.0209,-0.0216,-0.0267,-0.0278,-0.0289,-0.0316,-0.0323,-0.033,-0.0361,-0.0361,-0.0308,-0.03,-0.0294,-0.0285,-0.0369,0,0,0,0,0,-0.0048,-0.0049,-0.0076,-0.0073,-0.0079,-0.0115,-0.0126,-0.0148,-0.0178,-0.0193,-0.0227,-0.026,-0.0285,-0.0298,-0.0325,-0.0325,-0.0345,-0.0318,-0.0311,-0.0305,-0.0303,-0.0317,-0.0312,-0.0373,-0.0373,-0.0373,0,0,-0.0037,-0.005,-0.0052,-0.0067,-0.0086,-0.0086,-0.0125,-0.0133,-0.0134,-0.0195,-0.0206,-0.0238,-0.028,-0.0288,-0.0294,-0.0309,-0.0294,-0.0303,-0.0298,-0.0298,-0.0315,-0.0309,-0.0304,-0.0371,-0.0371,-0.0372,0,0,-0.0011,-0.0023,-0.0016,-0.0025,-0.0043,-0.0061,-0.0057,-0.0087,-0.0103,-0.0114,-0.0157,-0.0177,-0.0214,-0.0239,-0.0257,-0.0225,-0.0259,-0.023,-0.0188,-0.0202,-0.0197,-0.0193,-0.0192,-0.0188,-0.0225,-0.0225,-0.0225,0,0.0003,0.0011,-0.0014,-0.0008,-0.001,-0.0043,-0.003,-0.0047,-0.008,-0.0083,-0.0109,-0.0155,-0.019,-0.0199,-0.0194,-0.021,-0.022,-0.0216,-0.0193,-0.019,-0.0187,-0.0187,-0.0184,-0.0221,-0.0221,-0.0222,-0.0222,0,0.0034,0.004,0.0046,0.0043,0.0039,0.0047,0.0025,0.0021,0.0002,-0.0017,-0.003,-0.0079,-0.0107,-0.0116,-0.015,-0.0141,-0.0155,-0.0184,-0.0213,-0.0176,-0.0178,-0.0177,-0.0216,-0.0217,-0.0218,-0.0219,0,0,0.0071,0.0068,0.0072,0.0082,0.007,0.0074,0.0078,0.0077,0.0092,0.0052,0.0063,0.0014,-0.0012,-0.0034,-0.0072,-0.0086,-0.0073,-0.0122,-0.0124,-0.0118,-0.009,-0.009,-0.0089,-0.0099,-0.0099,-0.0099,-0.0092,0,0.0106,0.0134,0.012,0.0151,0.0167,0.0142,0.0153,0.0145,0.0136,0.014,0.009,0.0081,0.002,0.0013,-0.0012,-0.0056,-0.0068,-0.0071,-0.0129,-0.013,-0.0133,-0.0087,-0.0054,-0.0045,-0.0091,-0.0091,-0.0091,0,0.0146,0.0161,0.0195,0.0213,0.0217,0.0228,0.025,0.0257,0.0249,0.0238,0.0215,0.0175,0.0147,0.0089,0.0029,0.003,-0.0024,-0.0063,-0.0065,-0.0092,-0.0128,-0.0093,-0.0041,-0.0123,-0.0089,-0.0089,-0.0089,0,0.0197,0.0218,0.0251,0.0255,0.0264,0.0277,0.0287,0.029,0.0318,0.0306,0.0322,0.0267,0.0256,0.0175,0.0084,0.0059,0.0023,-0.0023,-0.0073,-0.0073,-0.007,-0.0071,-0.0104,-0.0067,-0.0067,-0.0067,-0.0067,0,0.0246,0.0274,0.0277,0.0296,0.0343,0.033,0.0386,0.0382,0.0406,0.0453,0.0379,0.0408,0.0276,0.0233,0.0129,0.0047,0.0056,-0.0052,-0.007,-0.0042,-0.004,-0.0134,-0.0203,-0.0066,-0.0066,-0.0066,-0.0066,0,0.0296,0.0297,0.0338,0.0356,0.0367,0.0404,0.0454,0.05,0.0503,0.0564,0.0563,0.053,0.0475,0.0344,0.0234,0.0126,-0.0016,-0.0005,0.0045,0.0033,-0.0102,-0.0169,-0.0239,-0.0293,-0.0054,-0.0054,-0.0054,0,0.0323,0.0349,0.0387,0.0422,0.0432,0.0484,0.0527,0.0547,0.0606,0.065,0.0692,0.0655,0.0651,0.0493,0.0302,0.0133,0.0012,0.0038,-0.0016,-0.009,-0.0178,-0.0228,-0.0272,0.0026,0.0026,0.0027,0.0027,0,0.0381,0.039,0.0424,0.0492,0.0541,0.0604,0.0669,0.0731,0.0766,0.082,0.0893,0.0895,0.0748,0.0602,0.0358,0.0235,-0.002,0.0043,-0.0047,-0.0124,-0.0167,-0.0232,0.0007,0.0033,0.0032,0.0032,0.0031,0.0031,0.0424,0.0457,0.05,0.0566,0.0627,0.071,0.0773,0.0857,0.0956,0.1033,0.1044,0.1062,0.0846,0.0531,0.0358,0.0057,0.0011,-0.0049,-0.0123,-0.0165,-0.0223,0.0035,0.0042,0.0042,0.0042,0.0041,0.0041,0,0.0474,0.0509,0.0574,0.0647,0.0719,0.0741,0.0857,0.0924,0.1044,0.1124,0.1183,0.1096,0.0844,0.0553,0.015,-0.0068,-0.0162,-0.0194,-0.0257,-0.0297,-0.0065,-0.0068,-0.0066,-0.0066,-0.0066,-0.0066,-0.0066,-0.0066,0.0501,0.0562,0.0588,0.0704,0.0762,0.0854,0.092,0.1024,0.1104,0.1191,0.1204,0.1194,0.0985,0.0332,-0.0109,-0.0219,-0.0404,-0.0433,-0.0546,-0.0384,-0.0376,-0.0368,-0.0385,-0.0451,-0.0451,-0.0729,-0.0732,-0.0735]}],[{"header":{"parameterUnit":"m.s-1","parameterCategory":2,"la1":30.2991,"la2":30.254,"lo1":-89.0895,"lo2":-89.0444,"dy":0.0017,"dx":0.0017,"nx":28,"ny":28,"refTime":"2025-01-02T03:00:00:Z","depth":"2","parameterNumber":2,"parameterNumberName":"U-component_of_CURRENTS"},"data":[0,0,0,0,0,0,0,0,0,0,0,0,0,0,0,0,0,0,0,0,0,0,0,0,0,0,0,0,0,0,0,0,0,0,0,0,0,0,0,0,0,0,0,0,0,0,0,0,0,0,0,0,0,0,0,0,0,0,0.2342,0.2341,0,0.2341,0.2341,0.2341,0.2375,0.2375,0.2376,0.2377,0.239,0.2389,0.2389,0,0,0,0,0,0,0,0,0,0,0,0,0,0.237,0.2369,0.2342,0.2341,0.2341,0.2341,0.2341,0.2341,0.2374,0.2375,0.2376,0.2377,0.239,0.2389,0.2389,0,0,0,0,0,0,0,0,0,0,0,0,0,0.2363,0.2369,0.2342,0.2357,0.2358,0.2341,0.2341,0.2341,0.2374,0.2375,0.2377,0.2378,0.239,0.239,0.2389,0.2363,0,0,0.2387,0.2387,0,0,0,0,0,0,0,0,0.2364,0.2362,0.2355,0.2356,0.2357,0.2358,0.2356,0.2349,0.2374,0.2369,0.2377,0.2378,0.2379,0.2379,0.2378,0.2363,0.2364,0.2387,0.2387,0.2387,0.2387,0,0,0,0,0,0,0,0.2364,0.2363,0.2343,0.2354,0.2356,0.2363,0.2364,0.2355,0.2369,0.237,0.2372,0.237,0.238,0.2379,0.2379,0.2364,0.2387,0.2387,0.2386,0.2386,0.2405,0.2405,0,0,0,0,0,0,0.236,0.2363,0.2343,0.2343,0.2362,0.2362,0.2362,0.2358,0.2369,0.2371,0.2369,0.2371,0.2379,0.2379,0.2379,0.2407,0.2387,0.2386,0.2386,0.2404,0.2405,0.2406,0,0,0,0,0,0,0.2361,0.2358,0.2343,0.2352,0.235,0.236,0.2354,0.2357,0.2369,0.2367,0.2371,0.2379,0.238,0.238,0.2377,0.2406,0.2386,0.2385,0.2403,0.2404,0.2405,0.2425,0,0,0,0,0,0,0.2361,0.2358,0.2359,0.2351,0.235,0.2347,0.2353,0.2356,0.2364,0.2368,0.2377,0.2379,0.2381,0.2378,0.2377,0.2405,0.2385,0.2402,0.2403,0.2405,0.2424,0.2427,0.243,0,0,0,0,0,0.2362,0.2352,0.2359,0.2356,0.2348,0.2347,0.2347,0.2359,0.2363,0.2373,0.2371,0.2379,0.2388,0.2377,0.2376,0.2404,0.2401,0.2403,0.2405,0.2422,0.2426,0.243,0,0,0,0,0,0,0.2353,0.2354,0.2361,0.235,0.2357,0.2353,0.2357,0.2361,0.2366,0.2373,0.237,0.2372,0.2392,0.2386,0.2374,0.2416,0.2404,0.2405,0.2418,0.2421,0.2424,0.2444,0.2385,0,0,0,0,0,0.2353,0.2356,0.2355,0.2349,0.2352,0.2356,0.2358,0.2369,0.2368,0.2373,0.2374,0.2382,0.2395,0.2397,0.2407,0.2408,0.2421,0.2433,0.2436,0.2439,0.2455,0.2492,0.25,0.2412,0.2412,0.2412,0,0,0.235,0.2348,0.2351,0.2349,0.2355,0.2362,0.2361,0.2371,0.2382,0.2371,0.2384,0.2393,0.2399,0.2417,0.2425,0.2414,0.2467,0.2441,0.2443,0.2458,0.2495,0.2503,0.2511,0.2413,0.2413,0.2413,0,0,0.2341,0.2343,0.2346,0.2354,0.2365,0.2371,0.2376,0.2382,0.2394,0.24,0.2408,0.2426,0.2428,0.2446,0.2453,0.2475,0.2488,0.2486,0.251,0.2545,0.2553,0.256,0.257,0.2578,0.2481,0.2481,0.2481,0,0.2341,0.2339,0.2347,0.2352,0.236,0.2376,0.2385,0.2396,0.2402,0.2416,0.2413,0.2449,0.2449,0.2482,0.2495,0.2485,0.2499,0.2492,0.255,0.2557,0.2564,0.2573,0.2582,0.2482,0.2482,0.2482,0.2482,0,0.2335,0.2341,0.2342,0.236,0.2371,0.2382,0.24,0.2419,0.2433,0.2449,0.2489,0.2491,0.2519,0.2524,0.2513,0.2568,0.2559,0.2554,0.254,0.2574,0.2581,0.259,0.2484,0.2483,0.2483,0.2483,0,0,0.2312,0.2337,0.2337,0.2349,0.238,0.2382,0.2415,0.2447,0.2476,0.2497,0.2534,0.2559,0.2578,0.2588,0.2588,0.2612,0.2659,0.2604,0.2605,0.2614,0.2726,0.2648,0.265,0.2666,0.2668,0.267,0.2705,0,0.2308,0.2317,0.2335,0.2352,0.2361,0.2396,0.2423,0.2459,0.2497,0.2537,0.2567,0.2605,0.2597,0.2616,0.2644,0.2665,0.2685,0.2649,0.2693,0.2694,0.262,0.2659,0.243,0.2437,0.2713,0.2714,0.2715,0,0.2291,0.2302,0.2316,0.2352,0.236,0.2379,0.2436,0.2467,0.2539,0.2573,0.2631,0.2655,0.2707,0.2689,0.2754,0.2733,0.2737,0.2743,0.2744,0.2676,0.2633,0.2451,0.2442,0.273,0.2728,0.2727,0.2726,0,0.2254,0.2284,0.2295,0.2306,0.2352,0.2374,0.2411,0.2481,0.2521,0.261,0.265,0.2716,0.2753,0.2787,0.2803,0.2788,0.2862,0.2839,0.277,0.2763,0.258,0.2554,0.2884,0.2884,0.2884,0.2883,0.2883,0,0.223,0.2236,0.2281,0.2284,0.231,0.2356,0.2407,0.2459,0.2547,0.2589,0.2671,0.2708,0.2784,0.2825,0.2831,0.283,0.2888,0.2788,0.2777,0.2577,0.2552,0.2817,0.2809,0.2885,0.2884,0.2884,0.2884,0,0.2178,0.2207,0.2221,0.2272,0.229,0.2311,0.2398,0.2436,0.2532,0.2593,0.2622,0.2727,0.2778,0.283,0.2883,0.2856,0.2865,0.2843,0.2594,0.2552,0.2732,0.2725,0.2774,0.2772,0.277,0.2769,0.2767,0,0.2149,0.2152,0.22,0.221,0.2234,0.2282,0.2314,0.2417,0.246,0.2578,0.2592,0.2684,0.2705,0.2772,0.2751,0.2753,0.2822,0.2537,0.2467,0.2742,0.2726,0.2722,0.2717,0.2224,0.2219,0.2214,0.221,0,0.2099,0.2121,0.2135,0.2157,0.2183,0.2212,0.2267,0.2297,0.2401,0.2446,0.2495,0.2527,0.2591,0.2492,0.2515,0.2485,0.2522,0.2441,0.2806,0.229,0.2227,0.221,0.2223,0.2169,0.2173,0.2176,0.2178,0.218,0.2063,0.206,0.208,0.2091,0.2118,0.212,0.2112,0.2162,0.2192,0.2218,0.2317,0.2285,0.2313,0.2227,0.2156,0.2113,0.2295,0.2185,0.2198,0.2216,0.2148,0.2086,0.1988,0.1991,0.1993,0.1996,0.1998,0,0.2004,0.2005,0.2012,0.2008,0.1992,0.2039,0.2053,0.2015,0.1985,0.2028,0.2038,0.186,0.1787,0.1823,0.1686,0.1689,0.1664,0.1619,0.156,0.1603,0.1641,0.1542,0.1222,0.1219,0.1217,0.1215,0,0,0.1974,0.1946,0.1939,0.1876,0.1877,0.1815,0.1798,0.175,0.1745,0.1674,0.1628,0.173,0.1777,0.1477,0.1437,0.1303,0.1445,0.1251,0.1877,0.1852,0.1887,0.1974,0.1873,0,0,0,0,0]},{"header":{"parameterUnit":"m.s-1","parameterCategory":2,"la1":30.2991,"la2":30.254,"lo1":-89.0895,"lo2":-89.0444,"dy":0.0017,"dx":0.0017,"nx":28,"ny":28,"refTime":"2025-01-02T03:00:00:Z","depth":"2","parameterNumber":3,"parameterNumberName":"V-component_of_CURRENTS"},"data":[0,0,0,0,0,0,0,0,0,0,0,0,0,0,0,0,0,0,0,0,0,0,0,0,0,0,0,0,0,0,0,0,0,0,0,0,0,0,0,0,0,0,0,0,0,0,0,0,0,0,0,0,0,0,0,0,0,0,0.0199,0.0199,0,0.0158,0.0158,0.0157,0.0115,0.0115,0.0115,0.0114,0.0071,0.0071,0.007,0,0,0,0,0,0,0,0,0,0,0,0,0,0.0215,0.0215,0.0199,0.0199,0.0198,0.0159,0.0158,0.0157,0.0115,0.0115,0.0115,0.0114,0.0072,0.0071,0.007,0,0,0,0,0,0,0,0,0,0,0,0,0,0.0192,0.0215,0.0199,0.0175,0.0172,0.0159,0.0158,0.0157,0.0115,0.0115,0.0114,0.0114,0.0072,0.0071,0.007,0.0073,0,0,0.0066,0.0065,0,0,0,0,0,0,0,0,0.0194,0.0192,0.0178,0.0176,0.0174,0.0144,0.0148,0.0129,0.0116,0.0134,0.0114,0.0114,0.0097,0.0094,0.0084,0.0071,0.0069,0.0066,0.0065,0.0065,0.0064,0,0,0,0,0,0,0,0.0195,0.0193,0.018,0.0178,0.0175,0.0157,0.0153,0.0144,0.0117,0.0133,0.013,0.013,0.0096,0.0085,0.0083,0.0068,0.0066,0.0065,0.0064,0.0063,0.0028,0.0027,0,0,0,0,0,0,0.0207,0.0195,0.0182,0.0179,0.0185,0.0158,0.0153,0.0152,0.0117,0.0112,0.013,0.0128,0.0088,0.0084,0.0081,0.0077,0.0065,0.0063,0.0063,0.0028,0.0028,0.0027,0,0,0,0,0,0,0.0208,0.0207,0.0183,0.0188,0.0184,0.0158,0.0157,0.0151,0.0138,0.0116,0.011,0.0123,0.0087,0.0083,0.0074,0.0075,0.0063,0.0062,0.0028,0.0028,0.0027,0.0072,0,0,0,0,0,0,0.0208,0.0207,0.0207,0.0189,0.0184,0.0174,0.0157,0.0151,0.014,0.0137,0.0108,0.0104,0.0086,0.0076,0.0072,0.0073,0.0061,0.0028,0.0028,0.0028,0.0071,0.0074,0.0076,0,0,0,0,0,0.0209,0.0213,0.0208,0.0206,0.0187,0.0174,0.017,0.0148,0.0141,0.0134,0.0119,0.0104,0.007,0.0075,0.0071,0.0072,0.0029,0.0028,0.0028,0.007,0.0073,0.0076,0,0,0,0,0,0,0.0219,0.0209,0.0202,0.0203,0.019,0.0168,0.0163,0.0151,0.0133,0.0131,0.0109,0.0104,0.0092,0.0076,0.0082,0.0057,0.0044,0.0043,0.0077,0.008,0.0082,0.0098,0.006,0,0,0,0,0,0.0224,0.0224,0.021,0.021,0.0205,0.0185,0.0177,0.0164,0.0149,0.014,0.0122,0.0102,0.0087,0.008,0.0061,0.0057,0.0044,0.0051,0.0053,0.0055,0.0064,0.0051,0.0053,0.0026,0.0026,0.0026,0,0,0.0227,0.0223,0.0222,0.0212,0.02,0.0201,0.0178,0.0169,0.017,0.014,0.0134,0.0109,0.0086,0.0076,0.0069,0.0065,0.0054,0.0055,0.0057,0.0064,0.0051,0.0053,0.0056,0.0025,0.0025,0.0026,0,0,0.0239,0.0231,0.0236,0.0229,0.0219,0.0209,0.021,0.0189,0.0178,0.0171,0.0148,0.0131,0.0106,0.0092,0.0083,0.0088,0.0064,0.0072,0.0102,0.009,0.0092,0.0094,0.0078,0.0078,0.0077,0.0077,0.0077,0,0.0244,0.0252,0.0234,0.024,0.0243,0.0218,0.0228,0.0215,0.0194,0.0195,0.0172,0.014,0.0116,0.0116,0.011,0.0095,0.0081,0.0098,0.0095,0.0096,0.0098,0.008,0.008,0.0079,0.0079,0.0079,0.0078,0,0.0261,0.0268,0.0271,0.0275,0.0272,0.0276,0.0263,0.0256,0.0242,0.0231,0.0219,0.0183,0.0166,0.0149,0.013,0.0129,0.0112,0.0099,0.0093,0.0104,0.0084,0.0083,0.0082,0.0081,0.0081,0.008,0,0,0.0278,0.0284,0.0287,0.03,0.0294,0.0298,0.0301,0.0304,0.0321,0.0282,0.0295,0.0252,0.0229,0.0216,0.0186,0.0171,0.0161,0.0141,0.0139,0.0135,0.0129,0.0115,0.0113,0.0147,0.0147,0.0147,0.011,0,0.0302,0.0329,0.0323,0.0351,0.0366,0.0351,0.0363,0.0359,0.0352,0.0356,0.0315,0.0309,0.0257,0.0248,0.0225,0.0181,0.0161,0.0172,0.0111,0.0109,0.0104,0.0112,0.0136,0.0105,0.0109,0.0109,0.0109,0,0.0327,0.0345,0.0376,0.0403,0.0408,0.0418,0.0443,0.0452,0.0449,0.0441,0.0422,0.0387,0.0357,0.0309,0.0242,0.0251,0.0192,0.0153,0.015,0.0124,0.0094,0.0094,0.0103,0.0107,0.0107,0.0108,0.0108,0,0.036,0.0387,0.0417,0.0424,0.0443,0.0455,0.0469,0.0477,0.0506,0.0497,0.0509,0.0461,0.0445,0.0367,0.0269,0.0257,0.0195,0.0169,0.0101,0.0099,0.01,0.0099,0.012,0.012,0.012,0.012,0.012,0,0.0395,0.042,0.0435,0.0452,0.0498,0.0494,0.0547,0.055,0.0575,0.0618,0.0556,0.0573,0.0458,0.0402,0.03,0.0202,0.0216,0.0111,0.0092,0.0115,0.0115,0.0102,0.0101,0.0118,0.0119,0.0119,0.0119,0,0.0425,0.0433,0.0473,0.05,0.0513,0.0547,0.0603,0.0647,0.0653,0.0706,0.0703,0.0667,0.0594,0.0471,0.0355,0.0256,0.0154,0.0111,0.0143,0.0128,0.0057,0.0058,0.0038,0.0037,0.0037,0.0036,0.0036,0,0.0443,0.0465,0.0511,0.0543,0.0557,0.0609,0.0652,0.0682,0.0736,0.0767,0.0799,0.0744,0.0718,0.054,0.0365,0.0193,0.0159,0.0092,0.007,0.0067,0.005,0.0052,0.0054,0.0085,0.0085,0.0085,0.0085,0,0.0482,0.0493,0.0528,0.0593,0.0641,0.0707,0.0769,0.0824,0.0865,0.0903,0.0941,0.0921,0.076,0.0598,0.036,0.0246,0.012,0.0086,0.0085,0.0102,0.0108,0.0093,0.0094,0.0085,0.0085,0.0085,0.0085,0.0085,0.0511,0.0541,0.0584,0.0647,0.0708,0.0786,0.0846,0.0918,0.0999,0.1047,0.104,0.1001,0.0829,0.0528,0.0333,0.0123,0.0131,0.0046,0.0048,0.0049,0.0061,0.0066,0.0037,0.0036,0.0036,0.0036,0.0036,0,0.0546,0.0578,0.0638,0.071,0.0777,0.0805,0.0911,0.0966,0.1055,0.1093,0.1114,0.0938,0.0768,0.0554,0.0248,0.0071,0.0063,0.0009,0.0036,0.0038,0.0039,0.0051,0.0023,0.0023,0.0022,0.0021,0,0,0.0565,0.0618,0.0643,0.0747,0.0803,0.089,0.0949,0.1026,0.1072,0.1098,0.1075,0.1054,0.0813,0.0585,0.0357,0.018,0.0146,0.0149,0.0181,0.0242,0.0244,0.0086,0.0109,0,0,0,0,0]}],[{"header":{"parameterUnit":"m.s-1","parameterCategory":2,"la1":30.2991,"la2":30.254,"lo1":-89.0895,"lo2":-89.0444,"dy":0.0017,"dx":0.0017,"nx":28,"ny":28,"refTime":"2025-01-02T03:00:00:Z","depth":"4","parameterNumber":2,"parameterNumberName":"U-component_of_CURRENTS"},"data":[0,0,0,0,0,0,0,0,0,0,0,0,0,0,0,0,0,0,0,0,0,0,0,0,0,0,0,0,0,0,0,0,0,0,0,0,0,0,0,0,0,0,0,0,0,0,0,0,0,0,0,0,0,0,0,0,0,0,0.1377,0.1377,0,0.141,0.141,0.1411,0.1456,0.1456,0.1457,0.1458,0.1505,0.1506,0.1506,0,0,0,0,0,0,0,0,0,0,0,0,0,0.1337,0.1337,0.1377,0.1377,0.1378,0.141,0.141,0.1411,0.1455,0.1456,0.1457,0.1458,0.1505,0.1506,0.1507,0,0,0,0,0,0,0,0,0,0,0,0,0,0.136,0.1338,0.1377,0.1404,0.1407,0.141,0.141,0.1411,0.1455,0.1456,0.1457,0.1459,0.1505,0.1506,0.1507,0.1489,0,0,0.1509,0.151,0,0,0,0,0,0,0,0,0.1359,0.1362,0.1399,0.1402,0.1405,0.143,0.1414,0.1438,0.1455,0.1437,0.1458,0.1459,0.1481,0.1484,0.1487,0.1491,0.1493,0.1509,0.151,0.151,0.151,0,0,0,0,0,0,0,0.1357,0.1361,0.139,0.14,0.1403,0.1409,0.1414,0.1418,0.1452,0.1438,0.1442,0.1445,0.1482,0.1486,0.1488,0.1494,0.1509,0.151,0.1511,0.1511,0.1581,0.1583,0,0,0,0,0,0,0.1353,0.1359,0.1389,0.1391,0.1384,0.1409,0.1414,0.1421,0.1452,0.1458,0.1444,0.1447,0.1484,0.1487,0.149,0.155,0.151,0.1511,0.1511,0.158,0.1582,0.1583,0,0,0,0,0,0,0.1352,0.1355,0.1387,0.1376,0.138,0.1409,0.1415,0.1421,0.1455,0.1456,0.1462,0.1476,0.1485,0.1489,0.1522,0.155,0.1511,0.1512,0.1578,0.158,0.1582,0.162,0,0,0,0,0,0,0.1351,0.1355,0.1373,0.1375,0.1381,0.1408,0.1414,0.1421,0.1453,0.1458,0.1485,0.1489,0.1486,0.1521,0.1523,0.155,0.1513,0.1577,0.1579,0.1582,0.1617,0.1623,0.1628,0,0,0,0,0,0.1349,0.1361,0.1374,0.1378,0.14,0.1409,0.1413,0.1436,0.1454,0.1471,0.1493,0.1489,0.1539,0.1522,0.1524,0.1553,0.1575,0.1578,0.1581,0.1615,0.1622,0.1628,0,0,0,0,0,0,0.1355,0.1367,0.1381,0.1398,0.1413,0.1417,0.1438,0.1451,0.1481,0.1498,0.1501,0.1506,0.1547,0.1545,0.1526,0.1582,0.1559,0.1562,0.1583,0.159,0.1596,0.16,0.1513,0,0,0,0,0,0.1363,0.1379,0.1388,0.1407,0.1417,0.1434,0.1447,0.1464,0.1481,0.1498,0.1514,0.1536,0.1555,0.157,0.1584,0.1608,0.1613,0.1631,0.1637,0.1641,0.1647,0.1679,0.1687,0.1593,0.1593,0.1593,0,0,0.137,0.138,0.139,0.141,0.1427,0.1442,0.1446,0.1475,0.1496,0.1496,0.1542,0.1558,0.1567,0.16,0.1618,0.1605,0.1671,0.1645,0.1649,0.1653,0.1683,0.1692,0.17,0.1595,0.1595,0.1594,0,0,0.1378,0.1403,0.1416,0.1431,0.1461,0.1469,0.1483,0.1506,0.1531,0.1565,0.1576,0.161,0.1636,0.1649,0.1657,0.1701,0.1701,0.1713,0.1743,0.1773,0.1781,0.1788,0.1805,0.1814,0.1714,0.1714,0.1715,0,0.1391,0.1405,0.1423,0.1439,0.1455,0.1484,0.1501,0.1525,0.1558,0.158,0.159,0.1647,0.1658,0.1694,0.1714,0.1714,0.1729,0.1714,0.178,0.1787,0.1794,0.181,0.1818,0.1717,0.1716,0.1716,0.1716,0,0.1397,0.1423,0.1435,0.1465,0.1484,0.1507,0.1534,0.157,0.1605,0.1625,0.1682,0.17,0.1736,0.1746,0.1745,0.1799,0.1794,0.1784,0.176,0.1805,0.1819,0.1828,0.172,0.1719,0.1718,0.1718,0,0,0.1387,0.1431,0.144,0.1458,0.1502,0.1513,0.156,0.1599,0.1637,0.1682,0.1727,0.1768,0.1793,0.1804,0.1814,0.184,0.1898,0.1838,0.1839,0.185,0.1966,0.183,0.1825,0.1905,0.1906,0.1908,0.1957,0,0.1392,0.1421,0.1445,0.1481,0.1496,0.154,0.1575,0.1621,0.1668,0.1721,0.176,0.181,0.1811,0.1841,0.187,0.1895,0.1922,0.1885,0.1925,0.1926,0.1795,0.1831,0.1913,0.1963,0.1965,0.1966,0.1967,0,0.1386,0.1407,0.1441,0.1487,0.15,0.1532,0.1598,0.1637,0.1715,0.1756,0.1818,0.1852,0.1913,0.1903,0.1972,0.1954,0.197,0.1979,0.1981,0.1845,0.1804,0.191,0.1982,0.198,0.1979,0.1978,0.1977,0,0.1352,0.1402,0.143,0.1446,0.1504,0.1539,0.1581,0.1655,0.1697,0.1793,0.1836,0.1906,0.1956,0.1992,0.2024,0.2012,0.2086,0.2065,0.1954,0.1945,0.2036,0.2028,0.2111,0.2111,0.2111,0.2111,0.2111,0,0.1328,0.1355,0.1423,0.1437,0.148,0.153,0.1591,0.1647,0.173,0.1777,0.1861,0.19,0.1986,0.2033,0.2048,0.2024,0.211,0.1963,0.1949,0.2051,0.2044,0.2042,0.2033,0.2113,0.2112,0.2112,0.2111,0,0.1283,0.1329,0.1365,0.1437,0.1465,0.1501,0.1594,0.163,0.1724,0.179,0.1826,0.1924,0.1977,0.2034,0.2094,0.2039,0.2037,0.2008,0.2119,0.211,0.1869,0.1862,0.1879,0.1874,0.1871,0.1868,0.1865,0,0.1258,0.1275,0.1361,0.1387,0.1427,0.1491,0.1529,0.1623,0.1658,0.178,0.1795,0.1889,0.1939,0.1912,0.1984,0.1995,0.1973,0.1957,0.1902,0.1861,0.1847,0.1845,0.1844,0.1859,0.1858,0.1857,0.1856,0,0.1212,0.126,0.1293,0.1345,0.1392,0.1429,0.1491,0.1503,0.1603,0.1705,0.1718,0.1739,0.1791,0.1824,0.185,0.1854,0.1956,0.1918,0.1925,0.1872,0.1837,0.1826,0.1829,0.1843,0.1845,0.1846,0.1847,0,0.1189,0.12,0.1252,0.1285,0.134,0.1341,0.1382,0.1408,0.145,0.1573,0.1577,0.1672,0.177,0.1752,0.1776,0.1768,0.1735,0.1671,0.169,0.1705,0.1624,0.1552,0.146,0,0,0,0,0,0.1155,0.1153,0.1181,0.1202,0.1251,0.1277,0.1341,0.1381,0.1476,0.1442,0.1501,0.1537,0.1557,0.161,0.1567,0.1703,0.1749,0.1644,0.1686,0.1771,0.1786,0.1706,0,0,0,0,0,0,0.1128,0.1157,0.1152,0.1125,0.1125,0.1155,0.119,0.1251,0.1233,0.1341,0.1362,0.1445,0.1494,0.1571,0.1541,0.1556,0.1549,0.1709,0.1705,0.1763,0.1777,0.1789,0.1711,0,0,0,0,0]},{"header":{"parameterUnit":"m.s-1","parameterCategory":2,"la1":30.2991,"la2":30.254,"lo1":-89.0895,"lo2":-89.0444,"dy":0.0017,"dx":0.0017,"nx":28,"ny":28,"refTime":"2025-01-02T03:00:00:Z","depth":"4","parameterNumber":3,"parameterNumberName":"V-component_of_CURRENTS"},"data":[0,0,0,0,0,0,0,0,0,0,0,0,0,0,0,0,0,0,0,0,0,0,0,0,0,0,0,0,0,0,0,0,0,0,0,0,0,0,0,0,0,0,0,0,0,0,0,0,0,0,0,0,0,0,0,0,0,0,0.0266,0.0266,0,0.0254,0.0254,0.0253,0.0258,0.0258,0.0258,0.0259,0.0262,0.0262,0.0261,0,0,0,0,0,0,0,0,0,0,0,0,0,0.0263,0.0264,0.0266,0.0266,0.0266,0.0254,0.0254,0.0253,0.0258,0.0258,0.0258,0.0259,0.0262,0.0262,0.0261,0,0,0,0,0,0,0,0,0,0,0,0,0,0.0258,0.0264,0.0266,0.0267,0.0267,0.0254,0.0254,0.0253,0.0257,0.0258,0.0259,0.0259,0.0262,0.0262,0.0261,0.0248,0,0,0.026,0.026,0,0,0,0,0,0,0,0,0.0259,0.0258,0.0267,0.0267,0.0267,0.0259,0.0254,0.0253,0.0257,0.026,0.0259,0.0259,0.0263,0.0262,0.0257,0.0248,0.0248,0.026,0.026,0.026,0.026,0,0,0,0,0,0,0,0.0259,0.0259,0.026,0.0267,0.0267,0.0258,0.0258,0.0253,0.0258,0.026,0.026,0.0261,0.0263,0.0257,0.0257,0.0248,0.026,0.026,0.026,0.0259,0.0247,0.0247,0,0,0,0,0,0,0.0264,0.0259,0.026,0.026,0.0265,0.0258,0.0258,0.026,0.0258,0.0258,0.026,0.0261,0.0258,0.0258,0.0257,0.0266,0.026,0.0259,0.0259,0.0247,0.0247,0.0247,0,0,0,0,0,0,0.0264,0.0264,0.0261,0.026,0.0259,0.0258,0.026,0.026,0.026,0.0258,0.0258,0.0262,0.0258,0.0258,0.0261,0.0266,0.0259,0.0259,0.0247,0.0247,0.0247,0.0268,0,0,0,0,0,0,0.0264,0.0264,0.0267,0.026,0.0259,0.0259,0.0259,0.0259,0.026,0.0261,0.026,0.026,0.0259,0.0262,0.0261,0.0265,0.0259,0.0248,0.0247,0.0247,0.0268,0.0269,0.027,0,0,0,0,0,0.0263,0.0266,0.0267,0.0267,0.0264,0.0259,0.0257,0.0257,0.026,0.026,0.0262,0.0261,0.026,0.0262,0.0261,0.0265,0.0248,0.0247,0.0247,0.0267,0.0269,0.027,0,0,0,0,0,0,0.0265,0.0266,0.0268,0.027,0.0268,0.026,0.0261,0.0259,0.0259,0.0263,0.0261,0.0261,0.0265,0.0259,0.0261,0.0259,0.0253,0.0252,0.0268,0.027,0.0271,0.0282,0.0258,0,0,0,0,0,0.0267,0.0272,0.0268,0.0271,0.027,0.0266,0.0264,0.0264,0.0263,0.0264,0.0262,0.0261,0.026,0.0262,0.0258,0.0258,0.0244,0.0258,0.0259,0.0261,0.0268,0.025,0.025,0.0246,0.0246,0.0246,0,0,0.0269,0.027,0.0273,0.0272,0.027,0.0274,0.0266,0.0266,0.0273,0.0264,0.0272,0.0264,0.026,0.0262,0.0263,0.0261,0.0251,0.026,0.0261,0.0268,0.025,0.025,0.025,0.0246,0.0246,0.0246,0,0,0.0275,0.0276,0.0282,0.0282,0.0282,0.028,0.0282,0.0277,0.0278,0.0281,0.0277,0.0275,0.0272,0.027,0.027,0.0273,0.0256,0.0268,0.0287,0.0269,0.0269,0.0269,0.0241,0.0238,0.0271,0.0271,0.0271,0,0.0278,0.0288,0.0282,0.0288,0.0294,0.0286,0.0296,0.0293,0.029,0.0296,0.0289,0.0284,0.0277,0.0284,0.0285,0.0277,0.0259,0.0284,0.0271,0.0271,0.0271,0.0241,0.0238,0.0272,0.0272,0.0272,0.0272,0,0.0288,0.0299,0.0302,0.0312,0.0314,0.0321,0.032,0.0321,0.0321,0.0321,0.0324,0.0309,0.0309,0.0301,0.0296,0.0293,0.0278,0.0273,0.027,0.0273,0.0241,0.0237,0.0274,0.0273,0.0273,0.0273,0,0,0.0294,0.0308,0.0312,0.0325,0.0331,0.0336,0.0346,0.0356,0.0372,0.0357,0.0369,0.0357,0.0347,0.0345,0.033,0.0314,0.029,0.0296,0.0294,0.0271,0.0241,0.0223,0.0217,0.0283,0.0283,0.0283,0.0216,0,0.0309,0.0331,0.0334,0.036,0.0373,0.0373,0.0388,0.0395,0.0398,0.0404,0.0384,0.0389,0.0365,0.0365,0.0344,0.0309,0.0284,0.0308,0.0239,0.0237,0.0224,0.0214,0.0282,0.0213,0.0212,0.0211,0.0211,0,0.0321,0.0338,0.0365,0.0395,0.0402,0.0416,0.0445,0.0458,0.0463,0.0464,0.0458,0.044,0.0418,0.0393,0.033,0.0347,0.0297,0.0261,0.0258,0.0234,0.0213,0.0211,0.0204,0.0205,0.0205,0.0206,0.0206,0,0.0334,0.0362,0.039,0.0398,0.0425,0.0442,0.0462,0.0479,0.0503,0.0504,0.0513,0.0481,0.0467,0.0405,0.0329,0.033,0.025,0.0242,0.0173,0.017,0.0199,0.0199,0.019,0.019,0.019,0.019,0.019,0,0.0349,0.0372,0.04,0.0415,0.0457,0.0468,0.0516,0.0526,0.055,0.058,0.0548,0.055,0.047,0.0414,0.0338,0.0244,0.0254,0.0174,0.0154,0.0207,0.0209,0.0195,0.0197,0.0188,0.0188,0.0189,0.0189,0,0.0357,0.0373,0.041,0.0447,0.0464,0.0496,0.0555,0.0588,0.0604,0.0636,0.0637,0.0601,0.0529,0.0436,0.0331,0.0261,0.017,0.0131,0.0186,0.0171,0.0098,0.0101,0.0051,0.0049,0.0048,0.0048,0.0047,0,0.0361,0.038,0.0434,0.0463,0.0484,0.0536,0.0575,0.0612,0.0648,0.0666,0.0677,0.0621,0.058,0.0417,0.0318,0.0165,0.0141,0.0085,0.0097,0.0099,0.0084,0.0089,0.0094,0.0045,0.0045,0.0045,0.0045,0,0.0374,0.0394,0.0425,0.0485,0.0532,0.0587,0.0642,0.067,0.0708,0.0722,0.0705,0.0624,0.0538,0.0415,0.0293,0.0184,0.012,0.0074,0.0076,0.0086,0.0092,0.008,0.0085,0.0041,0.0042,0.0042,0.0042,0,0.0385,0.0408,0.0451,0.0503,0.0562,0.0615,0.0648,0.0684,0.0717,0.0731,0.0722,0.0633,0.0587,0.0424,0.0315,0.0204,0.0175,0.0133,0.0131,0.0133,0.0177,0.0198,0.0162,0,0,0,0,0,0.0395,0.0419,0.0467,0.0523,0.0582,0.0617,0.0681,0.0711,0.0743,0.0732,0.073,0.0648,0.049,0.0429,0.0315,0.029,0.0151,0.015,0.01,0.0022,0.0026,0.0062,0,0,0,0,0,0,0.04,0.0443,0.0462,0.0527,0.0568,0.0635,0.0676,0.0702,0.07,0.0713,0.0635,0.0605,0.0457,0.0553,0.0307,0.0276,0.0225,0.0083,0.008,0.002,0.0024,0.0027,0.0065,0,0,0,0,0]}]]